EDT,Max TemperatureF,Mean TemperatureF,Min TemperatureF,Max Dew PointF,MeanDew PointF,Min DewpointF,Max Humidity, Mean Humidity, Min Humidity, Max Sea Level PressureIn, Mean Sea Level PressureIn, Min Sea Level PressureIn, Max VisibilityMiles, Mean VisibilityMiles, Min VisibilityMiles, Max Wind SpeedMPH, Mean Wind SpeedMPH, Max Gust SpeedMPH,PrecipitationIn, CloudCover, Events, WindDirDegrees
2012-8-1,84,72,59,67,61,50,100,67,33,29.96,29.91,29.82,10,9,2,10,4,13,0.00,3,,295
2012-8-2,85,74,63,69,64,59,100,76,51,29.90,29.80,29.75,10,10,7,17,7,30,0.02,4,Rain,251
2012-8-3,74,67,60,65,62,59,100,84,68,30.05,30.00,29.91,10,10,10,14,6,18,0.00,4,,95
2012-8-4,95,79,62,72,66,59,100,68,36,30.02,29.90,29.78,10,10,10,21,7,25,0.00,1,,159
2012-8-5,77,66,55,69,57,46,90,66,41,30.11,29.88,29.73,10,10,7,21,7,32,0.00,2,,276
2012-8-6,85,68,50,58,51,46,84,57,29,30.13,30.05,29.95,10,10,10,14,5,18,0.00,0,,244
2012-8-7,86,74,61,64,58,52,84,59,34,29.97,29.90,29.87,10,10,10,16,6,23,T,3,,250
2012-8-8,77,66,55,60,56,52,93,71,49,30.02,30.00,29.96,10,10,10,15,7,18,0.00,2,,333
2012-8-9,69,64,58,62,57,52,100,79,58,30.04,30.00,29.96,10,10,5,16,7,23,0.19,7,Rain,44
2012-8-10,64,62,59,58,55,51,90,77,63,29.96,29.87,29.81,10,8,4,22,15,28,0.99,8,Rain,18
2012-8-11,63,61,59,61,59,57,97,94,90,29.90,29.85,29.79,10,7,2,20,10,25,0.51,8,Rain,338
2012-8-12,79,69,58,60,57,53,93,69,45,29.98,29.93,29.90,10,10,10,13,4,15,0.00,5,,296
2012-8-13,74,65,55,60,56,53,93,73,53,29.98,29.96,29.94,10,10,10,13,2,17,0.00,5,,223
2012-8-14,81,66,51,66,59,50,100,73,45,29.94,29.90,29.86,10,8,0,16,3,21,0.41,3,Fog-Rain-Thunderstorm,98
2012-8-15,81,69,57,63,59,50,100,69,37,29.95,29.92,29.88,10,8,1,14,3,17,0.00,4,,247
2012-8-16,70,63,56,66,62,55,100,89,78,29.92,29.77,29.64,10,8,2,23,6,31,0.43,6,Rain,201
2012-8-17,70,60,49,59,51,42,97,70,42,29.98,29.85,29.75,10,10,10,17,7,25,T,5,Rain,285
2012-8-18,75,61,47,51,46,43,93,63,33,29.99,29.95,29.90,10,10,10,14,5,20,0.00,2,,250
2012-8-19,73,61,49,53,48,42,100,69,37,29.97,29.95,29.92,10,10,10,14,4,17,0.01,4,,307
2012-8-20,73,59,44,53,48,44,100,72,44,29.99,29.96,29.92,10,10,10,15,4,21,0.00,2,,258
2012-8-21,77,62,46,59,53,45,93,68,43,30.06,30.03,29.98,10,10,8,14,4,17,0.00,1,,142
2012-8-22,84,67,50,57,53,50,100,67,33,30.07,30.05,30.00,10,8,0,16,4,24,0.00,3,Fog,233
2012-8-23,84,67,50,65,57,49,93,65,37,30.10,30.07,30.04,10,10,10,15,4,20,0.00,0,Thunderstorm,161
2012-8-24,89,77,64,64,61,58,93,65,36,30.07,30.04,30.01,10,10,10,18,7,23,T,3,Thunderstorm,178
2012-8-25,91,75,58,64,61,58,97,68,38,30.09,30.07,30.04,10,9,4,16,6,24,0.00,0,,165
2012-8-26,90,76,61,68,64,59,97,70,43,30.09,30.03,29.96,10,7,2,21,7,26,0.16,4,Rain,175
2012-8-27,82,72,61,67,63,55,93,69,45,30.03,29.98,29.95,10,8,3,17,7,22,T,5,Rain,311
2012-8-28,74,63,51,59,53,49,100,73,46,30.14,30.09,30.04,10,10,10,16,6,22,0.00,2,,340
2012-8-29,78,62,46,60,51,44,100,70,39,30.13,30.08,30.00,10,10,2,14,3,16,0.00,1,,152
2012-8-30,90,72,53,62,59,53,93,66,38,30.01,29.93,29.82,10,10,10,21,9,29,0.00,1,,219
2012-8-31,85,72,59,65,57,47,72,50,27,30.10,29.94,29.83,10,10,10,20,9,24,0.00,1,,292